SL-14 R/B (16496 NORAD) Tracking and Keplerian Element Data

This shows tracking and keplerian element data for the satellite.

Feedback or suggestion? Click here.




ElementValue
Catalog16496
NameSL-14 R/B
Epoch Orbit3235
Epoch Day12.81036888
Epoch Year2024
RAAN279.2395
Inclination82.5251
Eccentricity0.0020481
Argument of Perigee65.2665
Mean Anonmoly0.8679
Mean Motion14.85024797
Decay Rate8.57E-06
L11 16496U 86006B 24012.81036888 .00000857 00000+0 97240-4 0 9992
L22 16496 82.5251 279.2395 0020481 65.2665 0.8679 14.85024797 32353



Live tracking and technical data element details for SL-14 R/B (NORAD 16496). SL-14 R/B can be tracked NOW for your location showing map with azimuth and elevation plus other details from your city location.







IsCatalogInMostPopularTable: catalog: 16496, numindb: 343
Update: records affected: 1



GetName: 16496 SL-14 R/B

Hit Count: updated at: Sun, 14 Apr 2024 23:02:59 GMT